Regional Weather Roundup
Issued by NWS Northern Indiana

Home | Current Version | Previous Version | Graphics & Text | Print | Product List | Glossary On
Versions: 1 2 3 4 5 6 7 8 9 10 11 12 13 14 15 16 17 18 19 20 21 22 23 24 25 26 27 28 29 30 31 32 33 34 35 36 37 38 39 40 41 42 43 44 45 46 47 48 49 50
883
ASUS43 KIWX 200700
RWRIWX

KIWX WEATHER ROUNDUP
NATIONAL WEATHER SERVICE NORTHERN INDIANA
200 AM EST FRI JAN 20 2017

NOTE: "FAIR" INDICATES FEW OR NO CLOUDS BELOW 12,000 FEET WITH NO
SIGNIFICANT WEATHER AND/OR OBSTRUCTIONS TO VISIBILITY.

* THESE STATIONS ARE NOT UNDER NWS QUALITY CONTROL. THEY ALSO MAY NOT
  REPORT WEATHER SUCH AS PRECIPITATION OR FOG.

INZ001>027-200800-
NORTHERN INDIANA

CITY           SKY/WX    TMP DP  RH WIND       PRES   REMARKS
KNOX*          CLOUDY    37  34  87 E6        29.66F
SOUTH BEND     LGT RAIN  38  37  97 E8        29.69F FOG
GOSHEN         LGT RAIN  39  35  86 E15       29.68F FOG
FORT WAYNE     RAIN      40  37  89 NE10      29.69F FOG
PERU/GRISSOM   LGT RAIN  42  42 100 E13       29.61F FOG

$$
INZ028>050-200800-
CENTRAL INDIANA

CITY           SKY/WX    TMP DP  RH WIND       PRES   REMARKS
LAFAYETTE      HVY RAIN  42  42 100 E8        29.61F FOG
KOKOMO*        LGT RAIN  42  41  96 E12       29.63F FOG
MUNCIE*        LGT RAIN  44  42  93 E8        29.64F FOG
INDIANAPOLIS   LGT RAIN  45  44  97 E7        29.61F FOG

$$
MIZ043>046-050>051-056>058-064>065-071>073-077>080-200800-
SOUTHWEST LOWER MICHIGAN

CITY           SKY/WX    TMP DP  RH WIND       PRES   REMARKS
BATTLE CREEK   LGT RAIN  36  35  96 E7        29.74F FOG
BENTON HARBOR  LGT RAIN  39  36  89 E7        29.71F FOG
COLDWATER*     LGT RAIN  37  37 100 E8        29.73F
HILLSDALE*     CLOUDY    32  32 100 E9        29.74F FOG     WCI  24
HOLLAND        LGT RAIN  37  34  89 E5        29.74F
GRAND RAPIDS   LGT RAIN  35  32  88 E10       29.75F FOG     WCI  27
KALAMAZOO      LGT RAIN  37  34  89 E7        29.73F FOG
STURGIS*       LGT RAIN  37  36  97 E9        29.71F
THREE RIVERS*  LGT RAIN  37  37  99 E7        29.73F

$$
OHZ001>008-015>018-024>025-200800-
NORTHWEST OHIO

CITY           SKY/WX    TMP DP  RH WIND       PRES   REMARKS
DEFIANCE       MIX PCPN  36  34  92 E10       29.75F FOG
FINDLAY        CLOUDY    38  33  82 E10       29.74F
TOLEDO EXPRESS CLOUDY    35  35 100 E12       29.77F FOG     WCI  27
TOLEDO METCALF CLOUDY    35  34  96 NE9       29.80F FOG     WCI  28
LIMA           RAIN      39  39 100 E12       29.71F FOG

$$
AND FOR LAKE MICHIGAN COASTAL AND OPEN LAKE BUOY OBSERVATIONS

STATION/POSITION TEMP    WIND        PRES    VSBY  WAVE
                 AIR SEA DIR/SP/G                  HT/PER
                 (F)     (DEG/KT/KT) (MB)    (MI)  (FT/S)
CALUMET HARBOR    36      40/  8/ 10 1004.6F
MICHIGAN CITY     37      50/  8/  9   N/A
BURNS HARBOR      35      70/  8/  9 1005.4F

$$
&&




USA.gov is the U.S. government's official web portal to all federal, state and local government web resources and services.